Simultaneous Nadir Overpasses (SNOs) Predictions

Prediction of SNOs between METOP-B and NOAA-19 Satellite Orbit:

Table of predicted SNOs for the next 14.0 days since TLE Epoch: 7/24/2020
Index Date (METOP-B) Time (METOP-B) Lat,Lon (METOP-B) SZA (METOP-B ) Date (NOAA-19) Time (NOAA-19) Lat,Lon (NOAA-19) SZA (NOAA-19 ) Distance(km) Time Diff (sec)
1 07/24/2020 22:35:51 80.08,-136.07 61.14 07/24/2020 22:35:25 80.10,-136.04 61.16 2.88 26
2 07/24/2020 23:26:31 -80.10, 31.56 118.81 07/24/2020 23:26:29 -80.08, 31.48 118.83 3.02 2
3 07/25/2020 00:17:12 80.09,-161.24 61.19 07/25/2020 00:17:25 80.09,-161.36 61.18 2.33 13
4 07/25/2020 01:07:53 -80.09, 6.09 118.81 07/25/2020 01:08:29 -80.07, 6.16 118.82 2.86 36
5 07/25/2020 01:58:34 80.08, 173.28 61.18 07/25/2020 01:59:25 80.08, 173.32 61.19 0.69 51
6 07/25/2020 02:49:15 -80.08, -19.39 118.82 07/25/2020 02:50:30 -80.08, -19.48 118.80 1.87 75
7 08/04/2020 21:17:05 -80.14, 64.23 116.08 08/04/2020 21:15:51 -80.15, 63.61 116.13 11.93 74
8 08/04/2020 22:07:46 80.12,-128.59 63.91 08/04/2020 22:06:47 80.12,-128.71 63.88 2.28 59
9 08/04/2020 22:58:27 -80.12, 38.75 116.09 08/04/2020 22:57:50 -80.12, 38.61 116.11 2.96 37
10 08/04/2020 23:49:08 80.11,-154.07 63.91 08/04/2020 23:48:47 80.11,-154.03 63.90 0.68 21
11 08/05/2020 00:39:49 -80.11, 13.28 116.09 08/05/2020 00:39:50 -80.10, 13.28 116.09 0.71 1
12 08/05/2020 01:30:30 80.10,-179.54 63.90 08/05/2020 01:30:48 80.12,-179.67 63.92 3.52 18
13 08/05/2020 02:21:11 -80.10, -12.20 116.09 08/05/2020 02:21:50 -80.09, -12.05 116.07 2.93 39
14 08/05/2020 03:11:52 80.08, 154.98 63.90 08/05/2020 03:12:48 80.11, 155.01 63.94 2.66 56
